Weather History for Kemmerer, WY

Change the Weather History Date:

Saturday, August 3, 2013

  Actual Average Record
Temperature  
Mean Temperature 64 °F -  
Max Temperature 82 °F 81 °F 90 °F (1979)
Min Temperature 47 °F 44 °F 32 °F (1985)
Growing Degree Days 14 (Base 50)    
Moisture  
Dew Point 25 °F    
Average Humidity 27    
Maximum Humidity 48    
Minimum Humidity 9    
Precipitation  
Precipitation 0.00 in - - ()
Sea Level Pressure  
Sea Level Pressure 30.25 in    
Wind  
Wind Speed 9 mph (WNW)    
Max Wind Speed 21 mph    
Max Gust Speed 31 mph    
Visibility 10 miles    
Events      
Averages and records for this station are not official NWS values.
T = Trace of Precipitation, MM = Missing Value Source: NWS Daily Summary

Daily Weather History Graph

Daily Weather History Graph

Search for Another Location

Airport:

Trip Planner

Search our weather history database for the weather conditions in past years. The results will help you decide how hot, cold, wet, or windy it might be!

Date:

Astronomy

Aug. 03, 2013 Rise Set
Actual Time 6:18 AM MDT 8:37 PM MDT
Civil Twilight 5:47 AM MDT 9:08 PM MDT
Nautical Twilight 5:08 AM MDT 9:47 PM MDT
Astronomical Twilight 4:25 AM MDT 10:29 PM MDT
Moon 3:30 AM MDT (8/3) 6:22 PM MDT (8/3)
Length of Visible Light 15h 21m
Length of Day
14h 19m
Waning Crescent, 9% of the Moon is Illuminated
Aug 3
Waning Crescent
Aug 6
New
Aug 14
First Quarter
Aug 20
Full
Aug 28
Last Quarter

Hourly Weather History & Observations

Time (MDT) Temp. Dew Point Humidity Pressure Visibility Wind Dir Wind Speed Gust Speed Precip Events Conditions
12:15 AM 58.5 °F 23.2 °F 26% 30.23 in 10.0 mi South 4.6 mph - N/A   Clear
12:35 AM 58.3 °F 23.4 °F 26% 30.23 in 10.0 mi Calm Calm - N/A   Clear
12:55 AM 56.8 °F 24.6 °F 29% 30.23 in 10.0 mi Calm Calm - N/A   Clear
1:15 AM 57.2 °F 24.3 °F 28% 30.23 in 10.0 mi North 4.6 mph - N/A   Clear
1:35 AM 54.3 °F 26.8 °F 35% 30.23 in 10.0 mi North 5.8 mph - N/A   Clear
1:55 AM 52.7 °F 27.5 °F 38% 30.22 in 10.0 mi North 8.1 mph - N/A   Clear
2:15 AM 52.2 °F 25.2 °F 35% 30.22 in 10.0 mi North 6.9 mph - N/A   Clear
2:35 AM 53.4 °F 23.4 °F 31% 30.22 in 10.0 mi North 11.5 mph - N/A   Scattered Clouds
2:55 AM 52.3 °F 24.6 °F 34% 30.22 in 10.0 mi North 12.7 mph - N/A   Clear
3:15 AM 51.6 °F 27.1 °F 39% 30.22 in 10.0 mi North 8.1 mph - N/A   Clear
3:35 AM 51.1 °F 27.9 °F 41% 30.23 in 10.0 mi Calm Calm - N/A   Clear
3:55 AM 50.5 °F 27.9 °F 42% 30.23 in 10.0 mi North 10.4 mph - N/A   Clear
4:15 AM 49.6 °F 27.1 °F 42% 30.23 in 10.0 mi North 9.2 mph - N/A   Clear
4:35 AM 48.7 °F 27.9 °F 44% 30.23 in 10.0 mi North 10.4 mph - N/A   Clear
4:55 AM 48.9 °F 27.0 °F 43% 30.23 in 10.0 mi North 8.1 mph - N/A   Clear
5:15 AM 48.2 °F 27.5 °F 45% 30.24 in 10.0 mi North 10.4 mph - N/A   Clear
5:35 AM 47.7 °F 27.9 °F 46% 30.24 in 10.0 mi North 12.7 mph - N/A   Clear
5:55 AM 47.3 °F 27.7 °F 47% 30.25 in 10.0 mi North 10.4 mph - N/A   Clear
6:15 AM 47.5 °F 27.9 °F 47% 30.25 in 10.0 mi North 10.4 mph - N/A   Clear
6:35 AM 48.4 °F 27.5 °F 44% 30.26 in 10.0 mi North 10.4 mph - N/A   Clear
6:55 AM 48.6 °F 27.3 °F 44% 30.26 in 10.0 mi North 9.2 mph - N/A   Clear
7:15 AM 50.0 °F 28.6 °F 44% 30.27 in 10.0 mi North 8.1 mph - N/A   Clear
7:35 AM 50.2 °F 31.1 °F 48% 30.27 in 10.0 mi North 8.1 mph - N/A   Clear
7:55 AM 52.2 °F 31.3 °F 45% 30.27 in 10.0 mi North 8.1 mph - N/A   Clear
8:15 AM 55.0 °F 30.6 °F 39% 30.28 in 10.0 mi North 5.8 mph - N/A   Clear
8:35 AM 58.8 °F 30.9 °F 35% 30.28 in 10.0 mi North 3.5 mph - N/A   Clear
8:55 AM 64.0 °F 29.8 °F 28% 30.29 in 10.0 mi SW 3.5 mph - N/A   Clear
9:15 AM 67.1 °F 29.1 °F 24% 30.29 in 10.0 mi SSW 5.8 mph - N/A   Clear
9:35 AM 68.7 °F 29.5 °F 23% 30.29 in 10.0 mi SW 5.8 mph - N/A   Clear
9:55 AM 71.8 °F 28.9 °F 20% 30.28 in 10.0 mi SSW 15.0 mph 20.7 mph N/A   Clear
10:15 AM 74.5 °F 25.7 °F 16% 30.28 in 10.0 mi SW 17.3 mph 25.3 mph N/A   Clear
10:35 AM 75.7 °F 23.7 °F 14% 30.28 in 10.0 mi WSW 10.4 mph - N/A   Clear
10:55 AM 76.5 °F 22.1 °F 13% 30.28 in 10.0 mi WSW 15.0 mph 23.0 mph N/A   Clear
11:15 AM 78.1 °F 20.3 °F 12% 30.28 in 10.0 mi WSW 19.6 mph 25.3 mph N/A   Clear
11:35 AM 78.4 °F 18.1 °F 10% 30.28 in 10.0 mi WSW 17.3 mph 23.0 mph N/A   Clear
11:55 AM 78.8 °F 18.0 °F 10% 30.28 in 10.0 mi SSW 16.1 mph 25.3 mph N/A   Clear
12:15 PM - - N/A% 30.27 in 10.0 mi WSW 18.4 mph 27.6 mph N/A   Clear
12:35 PM - - N/A% 30.27 in 10.0 mi SW 13.8 mph 25.3 mph N/A   Clear
12:55 PM 81.0 °F 18.5 °F 10% 30.27 in 10.0 mi WSW 17.3 mph 29.9 mph N/A   Clear
1:15 PM - - N/A% 30.27 in 10.0 mi WSW 17.3 mph 24.2 mph N/A   Clear
1:35 PM - - N/A% 30.27 in 10.0 mi SW 18.4 mph 27.6 mph N/A   Clear
1:55 PM - - N/A% 30.26 in 10.0 mi West 15.0 mph 27.6 mph N/A   Clear
2:15 PM - - N/A% 30.26 in 10.0 mi WSW 19.6 mph 26.5 mph N/A   Clear
2:35 PM - - N/A% 30.25 in 10.0 mi South 4.6 mph 25.3 mph N/A   Clear
2:55 PM - - N/A% 30.26 in 10.0 mi WSW 16.1 mph 26.5 mph N/A   Clear
3:15 PM - - N/A% 30.25 in 10.0 mi WSW 17.3 mph 27.6 mph N/A   Clear
3:35 PM - - N/A% 30.25 in 10.0 mi West 17.3 mph 28.8 mph N/A   Clear
3:55 PM - - N/A% 30.24 in 10.0 mi WSW 18.4 mph 26.5 mph N/A   Clear
4:15 PM - - N/A% 30.24 in 10.0 mi West 13.8 mph 31.1 mph N/A   Clear
4:35 PM - - N/A% 30.24 in 10.0 mi WSW 18.4 mph 29.9 mph N/A   Clear
4:55 PM 82.8 °F 19.6 °F 10% 30.24 in 10.0 mi WSW 17.3 mph 26.5 mph N/A   Clear
5:15 PM 82.9 °F 18.7 °F 9% 30.24 in 10.0 mi West 20.7 mph 29.9 mph N/A   Clear
5:35 PM - - N/A% 30.24 in 10.0 mi West 13.8 mph 25.3 mph N/A   Clear
5:55 PM - - N/A% 30.24 in 10.0 mi WSW 17.3 mph - N/A   Clear
6:15 PM - - N/A% 30.24 in 10.0 mi West 20.7 mph 26.5 mph N/A   Clear
6:35 PM 80.4 °F 21.6 °F 11% 30.24 in 10.0 mi West 16.1 mph 23.0 mph N/A   Clear
6:55 PM 79.0 °F 21.2 °F 12% 30.24 in 10.0 mi WNW 18.4 mph 25.3 mph N/A   Clear
7:15 PM 77.9 °F 20.5 °F 12% 30.24 in 10.0 mi NW 17.3 mph 21.9 mph N/A   Clear
7:35 PM 76.1 °F 19.6 °F 12% 30.25 in 10.0 mi WNW 13.8 mph - N/A   Clear
7:55 PM 75.6 °F 19.4 °F 12% 30.25 in 10.0 mi WNW 11.5 mph - N/A   Clear
8:15 PM 73.4 °F 19.6 °F 13% 30.25 in 10.0 mi WNW 9.2 mph - N/A   Clear
8:35 PM 70.3 °F 20.3 °F 15% 30.25 in 10.0 mi WNW 9.2 mph - N/A   Clear
8:55 PM 68.5 °F 21.6 °F 17% 30.25 in 10.0 mi NW 10.4 mph - N/A   Clear
9:15 PM 66.4 °F 22.3 °F 19% 30.26 in 10.0 mi NNW 9.2 mph - N/A   Clear
9:35 PM 65.1 °F 23.5 °F 21% 30.27 in 10.0 mi NNW 11.5 mph - N/A   Clear
9:55 PM 64.4 °F 25.0 °F 22% 30.27 in 10.0 mi NNW 10.4 mph - N/A   Clear
10:15 PM 63.0 °F 25.2 °F 24% 30.28 in 10.0 mi NNW 9.2 mph - N/A   Clear
10:35 PM 62.2 °F 24.8 °F 24% 30.28 in 10.0 mi NNW 10.4 mph - N/A   Clear
10:55 PM 62.1 °F 24.4 °F 24% 30.28 in 10.0 mi NNW 10.4 mph - N/A   Clear
11:15 PM 61.9 °F 23.7 °F 23% 30.28 in 10.0 mi NNW 10.4 mph - N/A   Clear
11:35 PM 60.8 °F 23.5 °F 24% 30.28 in 10.0 mi North 10.4 mph - N/A   Clear
11:55 PM 59.4 °F 23.9 °F 26% 30.28 in 10.0 mi NNW 9.2 mph - N/A   Clear